CZ-4C R/B, 47858

Orbit data source: Space-Track

CZ-4C R/B, 47858 is space debris in LEO originally from a launch on Sat, 13 Mar 2021 UTC launched from the Jiuquan Satellite Launch Center, China (JSC). Debris objects in space refer to the collection of defunct objects orbiting the Earth. Examples of debris include non-operational satellites, rocket bodies, and fragments generated from explosions, collisions, or faulty payload assembly.

Loading next visibility...
Identifier
47858, 2021-020E
Orbit
LEO
Country
Flag of CNCN / PRC
Related business
Manufacturer
SAST
Mission
Spacecraft
Bus & Motor
CZ-4 STAGE 3, Unknown motor
Mass
~1,000 kg wet, ~1,000 kg dry
Launch date (UTC)
2021-03-13 (5 years ago)
Launch vehicle
Unknown
Launch site
Jiuquan Satellite Launch Center, China (JSC)
Object type
Payload
Rocket body
Debris
Shape & HBR
Cyl, 2.5 m
Radar Cross Section
14.536 m², Large (>1 m²)

Expand to show TLE details & history
Last TLE update: 2 days ago

TLE from 2 days ago
0 CZ-4C R/B
1 47858U 21020E   26171.41636939 -.00000066  00000-0  25831-4 0  9991
2 47858  63.4526  62.3295 0299112   0.8582 359.2908 13.67704872263242
Epoch: 2026-06-20T09:59Z
TLE epoch observation values (Epoch: 2026-06-20T09:59:34.315Z)
Latitude
-0.00003°
Longitude
3.8052°
Altitude
788.688 km
Speed
7.571 km/s
True Right ascension
04h 09m 19s
True Declination
0° 00' 00"
Sunlit
Object was in daylight at epoch
Visualization orbit readout
Latitude
Unknown
Longitude
Unknown
Altitude
Unknown
Speed
Unknown
Apparent Right ascension
Unknown
Apparent Declination
Unknown
Sunlit
N/A
Visualization observer readout
Local Sidereal Time
21:30:19
Azimuth
Unknown
Elevation
Unknown
Doppler factor
Unknown
Orbital elements
Apogee altitude
1,227.518 km
Perigee altitude
785.743 km
Semi-major axis
7,384.768 km
Eccentricity
0.02991
Inclination
63.4526°
RAAN
62.3295°
Arg. of periapsis
0.8582°
True anomaly
359.24673°
Mean anomaly
359.2908°
Eccentric anomaly
359.26893°
Mean motion
3.42009 °/min
Orbital period
105.26 mins
BSTAR
0.000025831
Loading maneuver chart data...
Computing Atmospheric mass density...
Loading historical data...
Loading historical data...
Loading historical data...
Loading historical data...
Loading historical data...
Loading historical data...
Loading historical data...
Other satellites on launch #20 in the year 2021 (2021-03-13 UTC)

Documentation

Showing up to 5 results
|